Newcastle, WY

8:19 PM MST on December 05, 2019 (GMT -0700)
Mondell

Weather History for KECS - October, 2019

Change the Weather History Date:

Sunday, October 27, 2019

  Actual Average (KCUT) Record (KCUT)
Temperature  
Mean Temperature 18 °F -  
Max Temperature 26 °F 56 °F 72 °F (1943)
Min Temperature 10 °F 27 °F 5 °F (1954)
Degree Days  
Heating Degree Days 47    
Moisture  
Dew Point 9 °F    
Average Humidity 64    
Maximum Humidity 80    
Minimum Humidity 46    
Precipitation  
Precipitation 0.00 in - - ()
Sea Level Pressure  
Sea Level Pressure 30.15 in    
Wind  
Wind Speed 14 mph (NNW)    
Max Wind Speed 21 mph    
Max Gust Speed 30 mph    
Visibility 10 miles    
Events Snow    
Averages and records for this station are not official NWS values.
T = Trace of Precipitation, MM = Missing Value Source: NWS Daily Summary

Daily Weather History Graph

Daily Weather History Graph

Search for Another Location

Airport or City:

Astronomy

Oct. 27, 2019 Rise Set
Actual Time 7:26 AM MDT 5:54 PM MDT
Civil Twilight 6:57 AM MDT 6:24 PM MDT
Nautical Twilight 6:23 AM MDT 6:58 PM MDT
Astronomical Twilight 5:49 AM MDT 7:31 PM MDT
Moon 6:34 AM MDT (10/27) 6:07 PM MDT (10/27)
Length of Visible Light 11h 27m
Length of Day
10h 28m
Waning Crescent, 0% of the Moon is Illuminated
Oct 27
Waning Crescent
Oct 27
New
Nov 4
First Quarter
Nov 12
Full
Nov 19
Last Quarter

Hourly Weather History & Observations

Time (MDT) Temp. Windchill Dew Point Humidity Pressure Visibility Wind Dir Wind Speed Gust Speed Precip Events Conditions
12:15 AM 26.6 °F 15.2 °F 17.6 °F 69% 30.07 in 10.0 mi NNW 13.8 mph 19.6 mph N/A   Overcast
12:35 AM 24.8 °F 14.0 °F 19.4 °F 80% 30.08 in 3.0 mi NNW 11.5 mph 19.6 mph N/A Snow Light Snow
12:55 AM 26.6 °F 15.7 °F 17.6 °F 69% 30.07 in 10.0 mi NNW 12.7 mph 20.7 mph N/A   Overcast
1:15 AM 26.6 °F 17.5 °F 17.6 °F 69% 30.08 in 10.0 mi North 9.2 mph 17.3 mph N/A   Overcast
1:35 AM 26.6 °F 14.7 °F 15.8 °F 64% 30.06 in 10.0 mi NNW 15.0 mph 23.0 mph N/A   Overcast
1:55 AM 26.6 °F 13.8 °F 14.0 °F 59% 30.08 in 10.0 mi NNW 17.3 mph 23.0 mph N/A   Overcast
2:15 AM 26.6 °F 13.8 °F 14.0 °F 59% 30.07 in 10.0 mi NNW 17.3 mph 24.2 mph N/A   Overcast
2:35 AM 24.8 °F 11.5 °F 14.0 °F 64% 30.08 in 10.0 mi NNW 17.3 mph 24.2 mph N/A   Scattered Clouds
2:55 AM 23.0 °F 11.7 °F 14.0 °F 68% 30.08 in 10.0 mi NNW 11.5 mph - N/A   Clear
3:15 AM 23.0 °F 10.6 °F 14.0 °F 68% 30.09 in 10.0 mi NNW 13.8 mph 20.7 mph N/A   Clear
3:35 AM 23.0 °F 11.1 °F 14.0 °F 68% 30.10 in 10.0 mi NNW 12.7 mph 17.3 mph N/A   Clear
3:55 AM 23.0 °F 9.2 °F 12.2 °F 63% 30.09 in 10.0 mi North 17.3 mph 20.7 mph N/A   Clear
4:15 AM 23.0 °F 10.1 °F 12.2 °F 63% 30.10 in 10.0 mi NNW 15.0 mph 24.2 mph N/A   Clear
4:35 AM 21.2 °F 6.0 °F 10.4 °F 63% 30.09 in 10.0 mi NNW 19.6 mph 25.3 mph N/A   Clear
4:55 AM 21.2 °F 6.0 °F 10.4 °F 63% 30.10 in 10.0 mi North 19.6 mph 24.2 mph N/A   Clear
5:15 AM 21.2 °F 7.8 °F 8.6 °F 58% 30.11 in 10.0 mi NNW 15.0 mph 25.3 mph N/A   Clear
5:35 AM 19.4 °F 3.6 °F 8.6 °F 63% 30.13 in 10.0 mi NNW 19.6 mph 25.3 mph N/A   Clear
5:55 AM 19.4 °F 5.0 °F 8.6 °F 63% 30.11 in 10.0 mi NNW 16.1 mph 26.5 mph N/A   Clear
6:15 AM 19.4 °F 4.5 °F 8.6 °F 63% 30.12 in 10.0 mi NNW 17.3 mph 23.0 mph N/A   Clear
6:35 AM 19.4 °F 6.6 °F 8.6 °F 63% 30.13 in 10.0 mi NW 12.7 mph 21.9 mph N/A   Clear
6:55 AM 19.4 °F 7.2 °F 10.4 °F 68% 30.14 in 10.0 mi NW 11.5 mph 17.3 mph N/A   Clear
7:15 AM 19.4 °F 5.0 °F 10.4 °F 68% 30.14 in 10.0 mi NW 16.1 mph - N/A   Mostly Cloudy
7:35 AM 19.4 °F 5.5 °F 12.2 °F 74% 30.15 in 10.0 mi NW 15.0 mph 19.6 mph N/A   Overcast
7:55 AM 19.4 °F 5.5 °F 10.4 °F 68% 30.16 in 10.0 mi NW 15.0 mph 21.9 mph N/A   Overcast
8:15 AM 19.4 °F 4.1 °F 10.4 °F 68% 30.17 in 10.0 mi NNW 18.4 mph 24.2 mph N/A   Overcast
8:35 AM 19.4 °F 4.5 °F 10.4 °F 68% 30.17 in 10.0 mi NNW 17.3 mph 25.3 mph N/A   Overcast
8:55 AM 21.2 °F 7.8 °F 10.4 °F 63% 30.17 in 10.0 mi NW 15.0 mph 23.0 mph N/A   Overcast
9:15 AM 21.2 °F 7.3 °F 10.4 °F 63% 30.17 in 10.0 mi NNW 16.1 mph 24.2 mph N/A   Overcast
9:35 AM 21.2 °F 7.3 °F 10.4 °F 63% 30.18 in 10.0 mi NW 16.1 mph 23.0 mph N/A   Overcast
9:55 AM 21.2 °F 8.9 °F 10.4 °F 63% 30.19 in 10.0 mi NW 12.7 mph 20.7 mph N/A   Overcast
10:15 AM 23.0 °F 9.6 °F 12.2 °F 63% 30.19 in 10.0 mi NW 16.1 mph 21.9 mph N/A   Overcast
10:35 AM 23.0 °F 10.6 °F 12.2 °F 63% 30.20 in 10.0 mi NW 13.8 mph - N/A   Overcast
10:55 AM 23.0 °F 9.6 °F 12.2 °F 63% 30.20 in 10.0 mi NW 16.1 mph 21.9 mph N/A   Overcast
11:35 AM 23.0 °F 10.6 °F 12.2 °F 63% 30.19 in 10.0 mi NW 13.8 mph 18.4 mph N/A   Mostly Cloudy
11:55 AM 23.0 °F 11.7 °F 14.0 °F 68% 30.17 in 7.0 mi NW 11.5 mph 20.7 mph N/A Snow Light Snow
12:15 PM 23.0 °F 9.2 °F 14.0 °F 68% 30.17 in 2.0 mi NNW 17.3 mph 25.3 mph N/A Snow Light Snow
12:35 PM 24.8 °F 10.3 °F 12.2 °F 59% 30.20 in 10.0 mi NW 20.7 mph 27.6 mph N/A   Overcast
12:55 PM 24.8 °F 10.7 °F 10.4 °F 54% 30.19 in 10.0 mi NNW 19.6 mph 25.3 mph N/A   Mostly Cloudy
1:15 PM 23.0 °F 8.0 °F 10.4 °F 59% 30.17 in 10.0 mi NW 20.7 mph 25.3 mph N/A   Mostly Cloudy
1:35 PM 23.0 °F 9.6 °F 6.8 °F 50% 30.17 in 10.0 mi NW 16.1 mph 25.3 mph N/A   Scattered Clouds
1:55 PM 23.0 °F 8.7 °F 6.8 °F 50% 30.18 in 10.0 mi NW 18.4 mph 29.9 mph N/A   Scattered Clouds
2:15 PM 23.0 °F 8.3 °F 5.0 °F 46% 30.17 in 10.0 mi NW 19.6 mph 24.2 mph N/A   Scattered Clouds
2:35 PM 21.2 °F 6.4 °F 5.0 °F 50% 30.17 in 10.0 mi NNW 18.4 mph 27.6 mph N/A   Scattered Clouds
2:55 PM 21.2 °F 6.0 °F 5.0 °F 50% 30.17 in 10.0 mi NW 19.6 mph 27.6 mph N/A   Clear
3:15 PM 23.0 °F 9.6 °F 6.8 °F 50% 30.17 in 10.0 mi NNW 16.1 mph 24.2 mph N/A   Scattered Clouds
3:35 PM 23.0 °F 10.1 °F 8.6 °F 54% 30.17 in 10.0 mi NNW 15.0 mph 25.3 mph N/A   Mostly Cloudy
3:55 PM 23.0 °F 9.6 °F 5.0 °F 46% 30.16 in 10.0 mi NNW 16.1 mph - N/A   Scattered Clouds
4:15 PM 21.2 °F 7.8 °F 5.0 °F 50% 30.16 in 10.0 mi NNW 15.0 mph 25.3 mph N/A   Scattered Clouds
4:35 PM 21.2 °F 6.8 °F 5.0 °F 50% 30.16 in 10.0 mi NNW 17.3 mph 24.2 mph N/A   Clear
4:55 PM 21.2 °F 6.8 °F 5.0 °F 50% 30.16 in 10.0 mi NNW 17.3 mph 21.9 mph N/A   Clear
5:15 PM 21.2 °F 7.3 °F 5.0 °F 50% 30.16 in 10.0 mi NNW 16.1 mph 21.9 mph N/A   Clear
5:35 PM 19.4 °F 5.5 °F 5.0 °F 54% 30.15 in 10.0 mi NNW 15.0 mph 19.6 mph N/A   Scattered Clouds
5:55 PM 19.4 °F 6.0 °F 5.0 °F 54% 30.15 in 10.0 mi NNW 13.8 mph 19.6 mph N/A   Scattered Clouds
6:15 PM 19.4 °F 5.5 °F 5.0 °F 54% 30.16 in 10.0 mi NW 15.0 mph 20.7 mph N/A   Clear
6:35 PM 17.6 °F 5.7 °F 5.0 °F 58% 30.16 in 10.0 mi NW 10.4 mph 18.4 mph N/A   Clear
6:55 PM 17.6 °F 5.0 °F 5.0 °F 58% 30.17 in 10.0 mi NW 11.5 mph - N/A   Clear
7:15 PM 17.6 °F 6.4 °F 5.0 °F 58% 30.17 in 10.0 mi NW 9.2 mph - N/A   Clear
7:35 PM 15.8 °F 5.1 °F 6.8 °F 68% 30.18 in 10.0 mi NNW 8.1 mph - N/A   Clear
7:55 PM 15.8 °F 5.1 °F 5.0 °F 62% 30.19 in 10.0 mi NNW 8.1 mph - N/A   Scattered Clouds
8:15 PM 14.0 °F 8.2 °F 5.0 °F 67% 30.19 in 10.0 mi WNW 3.5 mph - N/A   Clear
8:35 PM 12.2 °F 4.3 °F 5.0 °F 73% 30.19 in 10.0 mi NNW 4.6 mph - N/A   Clear
8:55 PM 10.4 °F 2.2 °F 5.0 °F 79% 30.18 in 10.0 mi NW 4.6 mph - N/A   Clear
9:15 PM 14.0 °F 3.9 °F 8.6 °F 79% 30.17 in 10.0 mi NW 6.9 mph - N/A   Mostly Cloudy
9:35 PM 14.0 °F 8.2 °F 6.8 °F 73% 30.18 in 10.0 mi NNW 3.5 mph - N/A   Overcast
9:55 PM 12.2 °F 6.1 °F 6.8 °F 79% 30.17 in 10.0 mi NW 3.5 mph - N/A   Scattered Clouds
10:15 PM 12.2 °F - 6.8 °F 79% 30.17 in 10.0 mi Calm Calm - N/A   Clear
10:35 PM 10.4 °F - 5.0 °F 79% 30.17 in 10.0 mi Calm Calm - N/A   Clear
10:55 PM 12.2 °F - 6.8 °F 79% 30.17 in 10.0 mi Calm Calm - N/A   Clear
11:15 PM 12.2 °F - 6.8 °F 79% 30.17 in 10.0 mi Calm Calm - N/A   Mostly Cloudy
11:35 PM 12.2 °F 6.1 °F 6.8 °F 79% 30.17 in 10.0 mi NNW 3.5 mph - N/A   Mostly Cloudy
11:55 PM 12.2 °F 4.3 °F 6.8 °F 79% 30.16 in 10.0 mi North 4.6 mph - N/A   Scattered Clouds